Regional Weather Roundup
Issued by NWS

Home | Current Version | Previous Version | Text Only | Print | Product List | Glossary On
Versions: 1 2 3 4 5 6 7 8 9 10 11 12 13 14 15 16 17 18 19 20 21 22 23 24 25 26 27 28 29 30 31 32 33 34 35 36 37 38 39 40 41 42 43 44 45 46 47 48 49 50
000
ASUS44 KMEG 260800
RWRTN
TENNESSEE HOURLY STATE WEATHER ROUNDUP
NATIONAL WEATHER SERVICE MEMPHIS TN
200 AM CST SUN FEB 26 2017

TNZ002-004-019-021-049-052-054-088>092-260900-
WEST TENNESSEE

CITY           SKY/WX    TMP DP  RH WIND       PRES   REMARKS
MEMPHIS INTL   CLEAR     32  23  69 S6        30.16S WCI  26
NWS MEMPHIS      N/A     31 N/A N/A MISG        N/A
JACKSON        CLEAR     26  23  88 CALM      30.17S
UNION CITY     CLEAR     27  27 100 CALM      30.16S
PARIS          CLEAR     21  18  86 CALM      30.16R
$$

TNZ008-025-027-028-033-062-065-066-260900-
NORTH MIDDLE TENNESSEE

CITY           SKY/WX    TMP DP  RH WIND       PRES   REMARKS
NASHVILLE      CLEAR     32  20  61 CALM      30.17S
CLARKSVILLE    CLEAR     28  21  75 CALM      30.17R
SMYRNA         CLEAR     28  24  85 CALM      30.18S
CROSSVILLE     CLEAR     28  18  66 N3        30.10S
$$

TNZ061-075-076-078-094-096-097-260900-
SOUTH MIDDLE TENNESSEE

CITY           SKY/WX    TMP DP  RH WIND       PRES   REMARKS
TULLAHOMA      CLEAR     25  18  74 CALM      30.14S
WINCHESTER     CLEAR     28  25  86 CALM      30.15S
COLUMBIA       CLEAR     27  27 100 CALM      30.14S
SHELBYVILLE    CLEAR     28  27  93 E3        30.16F
$$

TNZ017-018-042-046-047-260900-
NORTHEAST TENNESSEE

CITY           SKY/WX    TMP DP  RH WIND       PRES   REMARKS
TRI CITIES     CLEAR     30  18  60 W7        30.09R WCI  23
$$

TNZ012-013-036-069-073-074-260900-
CENTRAL EAST TENNESSEE

CITY           SKY/WX    TMP DP  RH WIND       PRES   REMARKS
KNOXVILLE      PTCLDY    33  21  61 CALM      30.12S
OAK RIDGE      PTCLDY    30  23  75 CALM      30.15S
GATLINBURG     CLEAR     28  19  69 CALM      30.13R
$$

TNZ083-085-099-260900-
SOUTHEAST TENNESSEE

CITY           SKY/WX    TMP DP  RH WIND       PRES   REMARKS
CHATTANOOGA    CLEAR     34  22  61 NW5       30.14F WCI  30
$$

SKY/WX REPORTED AS FAIR MEANS FEW OR NO CLOUDS BELOW
12 THOUSAND FEET.




USA.gov is the U.S. government's official web portal to all federal, state and local government web resources and services.